Time,TemperatureF,DewpointF,PressureIn,WindDirection,WindDirectionDegrees,WindSpeedMPH,WindSpeedGustMPH,Humidity,HourlyPrecipIn,Conditions,Clouds,dailyrainin,SoftwareType,DateUTC
2013-10-07 00:01:00,53.9,52.8,29.64,SSW,205,1.0,6.0,96,0.00,,,0.00,WeatherCatV1.21B27,2013-10-07 04:01:00,
2013-10-07 00:02:00,53.9,52.8,29.64,SSW,198,3.0,5.0,96,0.00,,,0.00,WeatherCatV1.21B27,2013-10-07 04:02:00,
2013-10-07 00:07:00,53.9,52.8,29.64,SSW,197,0.0,3.0,96,0.00,,,0.00,WeatherCatV1.21B27,2013-10-07 04:07:00,
2013-10-07 00:12:00,53.9,52.8,29.64,SSW,192,0.0,5.0,96,0.00,,,0.00,WeatherCatV1.21B27,2013-10-07 04:12:00,
2013-10-07 00:17:00,53.9,52.8,29.65,SSW,200,3.0,3.0,96,0.00,,,0.00,WeatherCatV1.21B27,2013-10-07 04:17:00,
2013-10-07 00:22:00,53.9,52.8,29.64,South,187,2.0,4.0,96,0.00,,,0.00,WeatherCatV1.21B27,2013-10-07 04:22:00,
2013-10-07 00:27:00,53.9,52.8,29.64,SSW,196,0.0,7.0,96,0.00,,,0.00,WeatherCatV1.21B27,2013-10-07 04:27:00,
2013-10-07 00:32:00,53.9,52.8,29.64,SSW,192,2.0,5.0,96,0.00,,,0.00,WeatherCatV1.21B27,2013-10-07 04:32:00,
2013-10-07 00:37:00,53.9,52.5,29.64,SSW,193,3.0,4.0,95,0.00,,,0.00,WeatherCatV1.21B27,2013-10-07 04:37:00,
2013-10-07 00:42:00,53.8,52.4,29.63,SSW,211,1.0,3.0,95,0.00,,,0.00,WeatherCatV1.21B27,2013-10-07 04:42:00,
2013-10-07 00:47:00,53.8,52.4,29.63,WSW,241,0.0,0.0,95,0.00,,,0.00,WeatherCatV1.21B27,2013-10-07 04:47:00,
2013-10-07 00:52:00,53.8,52.4,29.63,WSW,241,0.0,0.0,95,0.00,,,0.00,WeatherCatV1.21B27,2013-10-07 04:52:00,
2013-10-07 00:57:00,53.7,52.0,29.63,SW,227,0.0,1.0,94,0.00,,,0.00,WeatherCatV1.21B27,2013-10-07 04:57:00,
2013-10-07 01:02:00,53.7,52.0,29.63,SW,227,1.0,3.0,94,0.00,,,0.01,WeatherCatV1.21B27,2013-10-07 05:02:00,
2013-10-07 01:07:00,53.7,52.0,29.64,WSW,253,4.0,4.0,94,0.00,,,0.01,WeatherCatV1.21B27,2013-10-07 05:07:00,
2013-10-07 01:12:00,53.6,51.9,29.64,West,266,2.0,5.0,94,0.00,,,0.01,WeatherCatV1.21B27,2013-10-07 05:12:00,
2013-10-07 01:17:00,53.6,51.9,29.64,WSW,250,3.0,10.0,94,0.00,,,0.01,WeatherCatV1.21B27,2013-10-07 05:17:00,
2013-10-07 01:22:00,53.5,51.5,29.64,West,280,8.0,8.0,93,0.00,,,0.01,WeatherCatV1.21B27,2013-10-07 05:22:00,
2013-10-07 01:27:00,53.3,50.7,29.64,West,279,5.0,10.0,91,0.00,,,0.01,WeatherCatV1.21B27,2013-10-07 05:27:00,
2013-10-07 01:32:00,53.1,50.5,29.64,WSW,249,8.0,9.0,91,0.00,,,0.01,WeatherCatV1.21B27,2013-10-07 05:32:00,
2013-10-07 01:37:00,52.8,49.7,29.64,West,259,6.0,9.0,89,0.00,,,0.01,WeatherCatV1.21B27,2013-10-07 05:37:00,
2013-10-07 01:42:00,52.5,49.3,29.64,West,275,6.0,8.0,89,0.00,,,0.01,WeatherCatV1.21B27,2013-10-07 05:42:00,
2013-10-07 01:47:00,52.2,49.1,29.64,West,270,4.0,7.0,89,0.00,,,0.01,WeatherCatV1.21B27,2013-10-07 05:47:00,
2013-10-07 01:52:00,52.0,48.9,29.63,WNW,283,3.0,5.0,89,0.00,,,0.01,WeatherCatV1.21B27,2013-10-07 05:52:00,
2013-10-07 01:57:00,51.7,48.6,29.63,WNW,282,4.0,4.0,89,0.00,,,0.01,WeatherCatV1.21B27,2013-10-07 05:57:00,
2013-10-07 02:02:00,51.5,48.4,29.64,SW,231,7.0,7.0,89,0.00,,,0.01,WeatherCatV1.21B27,2013-10-07 06:02:00,
2013-10-07 02:07:00,51.3,47.9,29.65,West,272,6.0,11.0,88,0.00,,,0.01,WeatherCatV1.21B27,2013-10-07 06:07:00,
2013-10-07 02:12:00,51.2,47.8,29.64,West,259,4.0,10.0,88,0.00,,,0.01,WeatherCatV1.21B27,2013-10-07 06:12:00,
2013-10-07 02:17:00,51.1,47.7,29.65,West,266,6.0,9.0,88,0.00,,,0.01,WeatherCatV1.21B27,2013-10-07 06:17:00,
2013-10-07 02:22:00,51.0,47.6,29.64,West,267,2.0,5.0,88,0.00,,,0.01,WeatherCatV1.21B27,2013-10-07 06:22:00,
2013-10-07 02:27:00,50.8,47.7,29.65,WNW,298,4.0,8.0,89,0.00,,,0.01,WeatherCatV1.21B27,2013-10-07 06:27:00,
2013-10-07 02:32:00,50.6,46.9,29.65,WSW,256,5.0,6.0,87,0.00,,,0.01,WeatherCatV1.21B27,2013-10-07 06:32:00,
2013-10-07 02:37:00,50.5,47.1,29.64,WNW,284,4.0,9.0,88,0.00,,,0.01,WeatherCatV1.21B27,2013-10-07 06:37:00,
2013-10-07 02:42:00,50.3,46.9,29.64,West,269,4.0,8.0,88,0.00,,,0.01,WeatherCatV1.21B27,2013-10-07 06:42:00,
2013-10-07 02:47:00,50.2,46.8,29.65,WSW,257,4.0,8.0,88,0.00,,,0.01,WeatherCatV1.21B27,2013-10-07 06:47:00,
2013-10-07 02:52:00,50.1,46.7,29.65,West,267,3.0,5.0,88,0.00,,,0.01,WeatherCatV1.21B27,2013-10-07 06:52:00,
2013-10-07 02:57:00,50.1,46.7,29.65,WSW,238,4.0,7.0,88,0.00,,,0.01,WeatherCatV1.21B27,2013-10-07 06:57:00,
2013-10-07 03:02:00,50.0,46.6,29.65,West,269,3.0,7.0,88,0.00,,,0.01,WeatherCatV1.21B27,2013-10-07 07:02:00,
2013-10-07 03:07:00,49.9,45.9,29.65,West,269,3.0,10.0,86,0.00,,,0.01,WeatherCatV1.21B27,2013-10-07 07:07:00,
2013-10-07 03:12:00,49.8,45.8,29.65,WNW,283,5.0,9.0,86,0.00,,,0.01,WeatherCatV1.21B27,2013-10-07 07:12:00,
2013-10-07 03:17:00,49.6,45.0,29.65,West,275,5.0,10.0,84,0.00,,,0.01,WeatherCatV1.21B27,2013-10-07 07:17:00,
2013-10-07 03:22:00,49.4,44.8,29.65,West,273,2.0,5.0,84,0.00,,,0.01,WeatherCatV1.21B27,2013-10-07 07:22:00,
2013-10-07 03:27:00,49.1,44.2,29.66,West,277,3.0,10.0,83,0.00,,,0.01,WeatherCatV1.21B27,2013-10-07 07:27:00,
2013-10-07 03:32:00,48.8,44.2,29.66,West,274,7.0,8.0,84,0.00,,,0.01,WeatherCatV1.21B27,2013-10-07 07:32:00,
2013-10-07 03:37:00,48.5,43.9,29.66,West,271,5.0,8.0,84,0.00,,,0.01,WeatherCatV1.21B27,2013-10-07 07:37:00,
2013-10-07 03:42:00,48.2,43.3,29.66,West,274,11.0,12.0,83,0.00,,,0.01,WeatherCatV1.21B27,2013-10-07 07:42:00,
2013-10-07 03:47:00,48.1,43.2,29.66,West,262,2.0,8.0,83,0.00,,,0.01,WeatherCatV1.21B27,2013-10-07 07:47:00,
2013-10-07 03:52:00,47.7,42.8,29.66,West,261,4.0,8.0,83,0.00,,,0.01,WeatherCatV1.21B27,2013-10-07 07:52:00,
2013-10-07 03:57:00,47.5,42.6,29.66,WSW,246,4.0,7.0,83,0.00,,,0.01,WeatherCatV1.21B27,2013-10-07 07:57:00,
2013-10-07 04:02:00,47.3,42.7,29.66,West,263,3.0,6.0,84,0.00,,,0.01,WeatherCatV1.21B27,2013-10-07 08:02:00,
2013-10-07 04:07:00,47.0,42.7,29.66,WNW,286,4.0,7.0,85,0.00,,,0.01,WeatherCatV1.21B27,2013-10-07 08:07:00,
2013-10-07 04:12:00,46.9,42.6,29.66,West,275,10.0,10.0,85,0.00,,,0.01,WeatherCatV1.21B27,2013-10-07 08:12:00,
2013-10-07 04:17:00,46.8,42.5,29.66,West,260,4.0,8.0,85,0.00,,,0.01,WeatherCatV1.21B27,2013-10-07 08:17:00,
2013-10-07 04:22:00,46.7,42.4,29.67,WNW,288,3.0,9.0,85,0.00,,,0.01,WeatherCatV1.21B27,2013-10-07 08:22:00,
2013-10-07 04:27:00,46.7,42.4,29.67,WNW,288,4.0,12.0,85,0.00,,,0.01,WeatherCatV1.21B27,2013-10-07 08:27:00,
2013-10-07 04:32:00,46.7,42.4,29.67,WSW,256,4.0,6.0,85,0.00,,,0.01,WeatherCatV1.21B27,2013-10-07 08:32:00,
2013-10-07 04:37:00,46.5,42.2,29.67,West,263,3.0,7.0,85,0.00,,,0.01,WeatherCatV1.21B27,2013-10-07 08:37:00,
2013-10-07 04:42:00,46.3,42.0,29.67,WNW,282,6.0,6.0,85,0.00,,,0.01,WeatherCatV1.21B27,2013-10-07 08:42:00,
2013-10-07 04:47:00,46.1,41.8,29.67,WSW,249,4.0,6.0,85,0.00,,,0.01,WeatherCatV1.21B27,2013-10-07 08:47:00,
2013-10-07 04:52:00,45.9,42.0,29.67,West,263,4.0,7.0,86,0.00,,,0.01,WeatherCatV1.21B27,2013-10-07 08:52:00,
2013-10-07 04:57:00,45.8,41.8,29.67,WNW,284,1.0,4.0,86,0.00,,,0.01,WeatherCatV1.21B27,2013-10-07 08:57:00,
2013-10-07 05:02:00,45.6,41.7,29.67,West,275,4.0,5.0,86,0.00,,,0.01,WeatherCatV1.21B27,2013-10-07 09:02:00,
2013-10-07 05:07:00,45.4,41.5,29.67,West,274,3.0,6.0,86,0.00,,,0.01,WeatherCatV1.21B27,2013-10-07 09:07:00,
2013-10-07 05:12:00,45.2,41.6,29.67,WNW,282,2.0,6.0,87,0.00,,,0.01,WeatherCatV1.21B27,2013-10-07 09:12:00,
2013-10-07 05:17:00,45.1,41.5,29.67,West,263,3.0,5.0,87,0.00,,,0.01,WeatherCatV1.21B27,2013-10-07 09:17:00,
2013-10-07 05:22:00,44.9,41.3,29.67,WSW,248,2.0,5.0,87,0.00,,,0.01,WeatherCatV1.21B27,2013-10-07 09:22:00,
2013-10-07 05:27:00,44.9,41.3,29.67,West,260,2.0,3.0,87,0.00,,,0.01,WeatherCatV1.21B27,2013-10-07 09:27:00,
2013-10-07 05:32:00,44.8,41.5,29.68,West,262,2.0,5.0,88,0.00,,,0.01,WeatherCatV1.21B27,2013-10-07 09:32:00,
2013-10-07 05:37:00,44.7,41.4,29.68,West,264,3.0,4.0,88,0.00,,,0.01,WeatherCatV1.21B27,2013-10-07 09:37:00,
2013-10-07 05:42:00,44.6,41.3,29.68,WSW,249,1.0,4.0,88,0.00,,,0.01,WeatherCatV1.21B27,2013-10-07 09:42:00,
2013-10-07 05:47:00,44.5,41.2,29.68,WSW,254,4.0,4.0,88,0.00,,,0.01,WeatherCatV1.21B27,2013-10-07 09:47:00,
2013-10-07 05:52:00,44.5,41.2,29.68,WSW,243,3.0,4.0,88,0.00,,,0.01,WeatherCatV1.21B27,2013-10-07 09:52:00,
2013-10-07 05:57:00,44.5,41.5,29.68,SSW,208,1.0,3.0,89,0.00,,,0.01,WeatherCatV1.21B27,2013-10-07 09:57:00,
2013-10-07 06:02:00,44.4,41.4,29.69,WSW,248,0.0,4.0,89,0.00,,,0.01,WeatherCatV1.21B27,2013-10-07 10:02:00,
2013-10-07 06:07:00,44.2,41.2,29.68,WSW,248,1.0,6.0,89,0.00,,,0.01,WeatherCatV1.21B27,2013-10-07 10:07:00,
2013-10-07 06:12:00,44.1,41.4,29.68,West,259,1.0,4.0,90,0.00,,,0.01,WeatherCatV1.21B27,2013-10-07 10:12:00,
2013-10-07 06:17:00,44.0,41.3,29.68,WSW,238,4.0,5.0,90,0.00,,,0.01,WeatherCatV1.21B27,2013-10-07 10:17:00,
2013-10-07 06:22:00,43.8,41.1,29.68,SW,233,2.0,5.0,90,0.00,,,0.01,WeatherCatV1.21B27,2013-10-07 10:22:00,
2013-10-07 06:27:00,43.8,41.1,29.68,West,262,0.0,4.0,90,0.00,,,0.01,WeatherCatV1.21B27,2013-10-07 10:27:00,
2013-10-07 06:32:00,43.8,41.1,29.68,SW,231,4.0,5.0,90,0.00,,,0.01,WeatherCatV1.21B27,2013-10-07 10:32:00,
2013-10-07 06:37:00,43.8,41.1,29.68,SW,225,2.0,4.0,90,0.00,,,0.01,WeatherCatV1.21B27,2013-10-07 10:37:00,
2013-10-07 06:42:00,43.8,41.1,29.69,SW,229,2.0,5.0,90,0.00,,,0.01,WeatherCatV1.21B27,2013-10-07 10:42:00,
2013-10-07 06:47:00,43.8,41.1,29.69,WSW,238,4.0,4.0,90,0.00,,,0.01,WeatherCatV1.21B27,2013-10-07 10:47:00,
2013-10-07 06:52:00,43.7,41.0,29.69,WSW,237,1.0,6.0,90,0.00,,,0.01,WeatherCatV1.21B27,2013-10-07 10:52:00,
2013-10-07 06:57:00,43.7,41.0,29.69,SW,214,3.0,5.0,90,0.00,,,0.01,WeatherCatV1.21B27,2013-10-07 10:57:00,
2013-10-07 07:02:00,43.7,41.0,29.69,WSW,247,2.0,6.0,90,0.00,,,0.01,WeatherCatV1.21B27,2013-10-07 11:02:00,
2013-10-07 07:07:00,43.8,41.1,29.70,WSW,248,3.0,7.0,90,0.00,,,0.01,WeatherCatV1.21B27,2013-10-07 11:07:00,
2013-10-07 07:12:00,43.7,41.0,29.70,West,259,6.0,7.0,90,0.00,,,0.01,WeatherCatV1.21B27,2013-10-07 11:12:00,
2013-10-07 07:17:00,43.6,40.9,29.70,WSW,243,2.0,6.0,90,0.00,,,0.01,WeatherCatV1.21B27,2013-10-07 11:17:00,
2013-10-07 07:22:00,43.6,40.9,29.70,SW,225,5.0,6.0,90,0.00,,,0.01,WeatherCatV1.21B27,2013-10-07 11:22:00,
2013-10-07 07:27:00,43.5,40.8,29.70,SSW,197,4.0,8.0,90,0.00,,,0.01,WeatherCatV1.21B27,2013-10-07 11:27:00,
2013-10-07 07:32:00,43.5,40.8,29.70,West,260,2.0,6.0,90,0.00,,,0.01,WeatherCatV1.21B27,2013-10-07 11:32:00,
2013-10-07 07:37:00,43.4,40.7,29.70,WSW,251,1.0,5.0,90,0.00,,,0.01,WeatherCatV1.21B27,2013-10-07 11:37:00,
2013-10-07 07:42:00,43.3,40.8,29.70,SW,221,5.0,6.0,91,0.00,,,0.01,WeatherCatV1.21B27,2013-10-07 11:42:00,
2013-10-07 07:47:00,43.3,40.8,29.70,SW,233,4.0,4.0,91,0.00,,,0.01,WeatherCatV1.21B27,2013-10-07 11:47:00,
2013-10-07 07:52:00,43.3,40.8,29.71,WSW,250,4.0,6.0,91,0.00,,,0.01,WeatherCatV1.21B27,2013-10-07 11:52:00,
2013-10-07 07:57:00,43.3,40.8,29.71,SW,222,2.0,6.0,91,0.00,,,0.01,WeatherCatV1.21B27,2013-10-07 11:57:00,
2013-10-07 08:02:00,43.4,41.0,29.71,West,278,3.0,5.0,91,0.00,,,0.01,WeatherCatV1.21B27,2013-10-07 12:02:00,
2013-10-07 08:07:00,43.5,41.0,29.71,WSW,254,4.0,6.0,91,0.00,,,0.01,WeatherCatV1.21B27,2013-10-07 12:07:00,
2013-10-07 08:12:00,43.7,41.2,29.72,West,261,3.0,6.0,91,0.00,,,0.01,WeatherCatV1.21B27,2013-10-07 12:12:00,
2013-10-07 08:17:00,43.8,41.3,29.72,SSW,211,2.0,7.0,91,0.00,,,0.01,WeatherCatV1.21B27,2013-10-07 12:17:00,
2013-10-07 08:22:00,43.7,41.2,29.72,WSW,258,1.0,4.0,91,0.00,,,0.01,WeatherCatV1.21B27,2013-10-07 12:22:00,
2013-10-07 08:27:00,43.6,41.2,29.72,West,269,2.0,5.0,91,0.00,,,0.01,WeatherCatV1.21B27,2013-10-07 12:27:00,
2013-10-07 08:32:00,43.6,41.4,29.72,West,261,0.0,5.0,92,0.00,,,0.01,WeatherCatV1.21B27,2013-10-07 12:32:00,
2013-10-07 08:37:00,43.7,41.5,29.72,WSW,242,3.0,5.0,92,0.00,,,0.01,WeatherCatV1.21B27,2013-10-07 12:37:00,
2013-10-07 08:42:00,43.9,41.4,29.72,WSW,237,3.0,7.0,91,0.00,,,0.01,WeatherCatV1.21B27,2013-10-07 12:42:00,
2013-10-07 08:47:00,44.4,41.9,29.73,WSW,255,2.0,5.0,91,0.00,,,0.01,WeatherCatV1.21B27,2013-10-07 12:47:00,
2013-10-07 08:52:00,44.9,42.2,29.73,SW,236,6.0,9.0,90,0.00,,,0.01,WeatherCatV1.21B27,2013-10-07 12:52:00,
2013-10-07 08:57:00,45.2,42.4,29.73,SSW,205,7.0,7.0,90,0.00,,,0.01,WeatherCatV1.21B27,2013-10-07 12:57:00,
2013-10-07 09:02:00,45.4,42.6,29.73,SSW,207,4.0,7.0,90,0.00,,,0.01,WeatherCatV1.21B27,2013-10-07 13:02:00,
2013-10-07 09:07:00,45.9,42.8,29.73,WSW,250,2.0,7.0,89,0.00,,,0.01,WeatherCatV1.21B27,2013-10-07 13:07:00,
2013-10-07 09:12:00,46.1,42.8,29.73,WNW,291,4.0,9.0,88,0.00,,,0.01,WeatherCatV1.21B27,2013-10-07 13:12:00,
2013-10-07 09:17:00,46.4,43.0,29.73,WSW,255,7.0,8.0,88,0.00,,,0.01,WeatherCatV1.21B27,2013-10-07 13:17:00,
2013-10-07 09:22:00,46.7,43.3,29.73,WSW,239,6.0,13.0,88,0.00,,,0.01,WeatherCatV1.21B27,2013-10-07 13:22:00,
2013-10-07 09:27:00,47.0,43.6,29.73,SSW,205,5.0,9.0,88,0.00,,,0.01,WeatherCatV1.21B27,2013-10-07 13:27:00,
2013-10-07 09:32:00,47.4,43.7,29.73,West,274,6.0,11.0,87,0.00,,,0.01,WeatherCatV1.21B27,2013-10-07 13:32:00,
2013-10-07 09:37:00,47.6,43.9,29.73,West,264,7.0,7.0,87,0.00,,,0.01,WeatherCatV1.21B27,2013-10-07 13:37:00,
2013-10-07 09:42:00,47.9,44.2,29.73,SW,231,3.0,5.0,87,0.00,,,0.01,WeatherCatV1.21B27,2013-10-07 13:42:00,
2013-10-07 09:47:00,48.2,44.2,29.73,WSW,255,5.0,7.0,86,0.00,,,0.01,WeatherCatV1.21B27,2013-10-07 13:47:00,
2013-10-07 09:52:00,48.3,44.0,29.74,SW,223,11.0,11.0,85,0.00,,,0.01,WeatherCatV1.21B27,2013-10-07 13:52:00,
2013-10-07 09:57:00,48.5,43.9,29.73,WSW,250,9.0,16.0,84,0.00,,,0.01,WeatherCatV1.21B27,2013-10-07 13:57:00,
2013-10-07 10:02:00,49.0,44.4,29.74,SW,231,9.0,14.0,84,0.00,,,0.01,WeatherCatV1.21B27,2013-10-07 14:02:00,
2013-10-07 10:07:00,49.0,44.4,29.74,WSW,250,5.0,13.0,84,0.00,,,0.01,WeatherCatV1.21B27,2013-10-07 14:07:00,
2013-10-07 10:12:00,48.8,44.2,29.74,WSW,250,4.0,13.0,84,0.00,,,0.01,WeatherCatV1.21B27,2013-10-07 14:12:00,
2013-10-07 10:17:00,48.6,44.0,29.74,West,271,4.0,9.0,84,0.00,,,0.01,WeatherCatV1.21B27,2013-10-07 14:17:00,
2013-10-07 10:22:00,48.6,44.0,29.75,WSW,250,4.0,13.0,84,0.00,,,0.01,WeatherCatV1.21B27,2013-10-07 14:22:00,
2013-10-07 10:27:00,48.6,44.0,29.75,West,271,5.0,9.0,84,0.00,,,0.01,WeatherCatV1.21B27,2013-10-07 14:27:00,
2013-10-07 10:32:00,48.7,44.4,29.75,West,265,7.0,9.0,85,0.00,,,0.01,WeatherCatV1.21B27,2013-10-07 14:32:00,
2013-10-07 10:37:00,48.7,44.4,29.75,West,271,7.0,11.0,85,0.00,,,0.01,WeatherCatV1.21B27,2013-10-07 14:37:00,
2013-10-07 10:42:00,48.7,44.1,29.75,West,270,8.0,9.0,84,0.00,,,0.01,WeatherCatV1.21B27,2013-10-07 14:42:00,
2013-10-07 10:47:00,48.5,43.9,29.75,WSW,240,9.0,11.0,84,0.00,,,0.01,WeatherCatV1.21B27,2013-10-07 14:47:00,
2013-10-07 10:52:00,48.4,44.1,29.75,WSW,254,4.0,15.0,85,0.00,,,0.01,WeatherCatV1.21B27,2013-10-07 14:52:00,
2013-10-07 10:57:00,48.5,44.5,29.75,West,272,3.0,10.0,86,0.00,,,0.01,WeatherCatV1.21B27,2013-10-07 14:57:00,
2013-10-07 11:02:00,48.6,44.3,29.75,SW,221,3.0,9.0,85,0.00,,,0.01,WeatherCatV1.21B27,2013-10-07 15:02:00,
2013-10-07 11:07:00,48.8,44.8,29.75,West,259,4.0,11.0,86,0.00,,,0.01,WeatherCatV1.21B27,2013-10-07 15:07:00,
2013-10-07 11:12:00,49.0,44.7,29.76,West,261,8.0,8.0,85,0.00,,,0.01,WeatherCatV1.21B27,2013-10-07 15:12:00,
2013-10-07 11:17:00,49.3,45.3,29.76,West,279,4.0,9.0,86,0.00,,,0.01,WeatherCatV1.21B27,2013-10-07 15:17:00,
2013-10-07 11:22:00,49.6,45.3,29.76,West,272,10.0,11.0,85,0.00,,,0.01,WeatherCatV1.21B27,2013-10-07 15:22:00,
2013-10-07 11:27:00,50.3,46.0,29.76,WSW,244,2.0,11.0,85,0.00,,,0.01,WeatherCatV1.21B27,2013-10-07 15:27:00,
2013-10-07 11:32:00,50.8,46.5,29.75,SW,225,3.0,8.0,85,0.00,,,0.01,WeatherCatV1.21B27,2013-10-07 15:32:00,
2013-10-07 11:37:00,51.6,46.9,29.76,West,264,9.0,16.0,84,0.00,,,0.01,WeatherCatV1.21B27,2013-10-07 15:37:00,
2013-10-07 11:42:00,51.7,46.4,29.76,SW,234,6.0,13.0,82,0.00,,,0.01,WeatherCatV1.21B27,2013-10-07 15:42:00,
2013-10-07 11:47:00,52.2,47.5,29.76,WNW,288,10.0,15.0,84,0.00,,,0.01,WeatherCatV1.21B27,2013-10-07 15:47:00,
2013-10-07 11:52:00,52.0,46.7,29.76,West,272,9.0,9.0,82,0.00,,,0.01,WeatherCatV1.21B27,2013-10-07 15:52:00,
2013-10-07 11:57:00,52.2,46.5,29.76,WSW,250,7.0,18.0,81,0.00,,,0.01,WeatherCatV1.21B27,2013-10-07 15:57:00,
2013-10-07 12:02:00,52.8,47.8,29.77,NNW,328,9.0,15.0,83,0.00,,,0.01,WeatherCatV1.21B27,2013-10-07 16:02:00,
2013-10-07 12:07:00,53.4,47.4,29.77,NW,308,6.0,14.0,80,0.00,,,0.01,WeatherCatV1.21B27,2013-10-07 16:07:00,
2013-10-07 12:12:00,53.4,47.4,29.77,West,261,9.0,13.0,80,0.00,,,0.01,WeatherCatV1.21B27,2013-10-07 16:12:00,
2013-10-07 12:17:00,53.3,47.3,29.77,West,281,11.0,11.0,80,0.00,,,0.01,WeatherCatV1.21B27,2013-10-07 16:17:00,
2013-10-07 12:22:00,53.2,46.9,29.77,WSW,237,5.0,19.0,79,0.00,,,0.01,WeatherCatV1.21B27,2013-10-07 16:22:00,
2013-10-07 12:27:00,53.5,47.2,29.77,WSW,253,7.0,13.0,79,0.00,,,0.01,WeatherCatV1.21B27,2013-10-07 16:27:00,
2013-10-07 12:32:00,53.5,47.8,29.77,WNW,302,7.0,8.0,81,0.00,,,0.01,WeatherCatV1.21B27,2013-10-07 16:32:00,
2013-10-07 12:37:00,54.5,48.1,29.78,West,277,6.0,14.0,79,0.00,,,0.01,WeatherCatV1.21B27,2013-10-07 16:37:00,
2013-10-07 12:42:00,55.1,48.4,29.78,NW,304,6.0,15.0,78,0.00,,,0.01,WeatherCatV1.21B27,2013-10-07 16:42:00,
2013-10-07 12:47:00,55.3,47.9,29.77,WSW,257,9.0,10.0,76,0.00,,,0.01,WeatherCatV1.21B27,2013-10-07 16:47:00,
2013-10-07 12:52:00,55.8,48.7,29.78,West,279,5.0,8.0,77,0.00,,,0.01,WeatherCatV1.21B27,2013-10-07 16:52:00,
2013-10-07 12:57:00,55.9,48.1,29.78,WSW,248,10.0,12.0,75,0.00,,,0.01,WeatherCatV1.21B27,2013-10-07 16:57:00,
2013-10-07 13:02:00,55.7,47.9,29.78,WSW,252,8.0,10.0,75,0.00,,,0.01,WeatherCatV1.21B27,2013-10-07 17:02:00,
2013-10-07 13:07:00,55.4,46.9,29.78,West,265,5.0,15.0,73,0.00,,,0.01,WeatherCatV1.21B27,2013-10-07 17:07:00,
2013-10-07 13:12:00,55.0,47.2,29.78,West,263,4.0,11.0,75,0.00,,,0.01,WeatherCatV1.21B27,2013-10-07 17:12:00,
2013-10-07 13:17:00,55.2,47.8,29.78,WSW,250,5.0,10.0,76,0.00,,,0.01,WeatherCatV1.21B27,2013-10-07 17:17:00,
2013-10-07 13:22:00,55.2,47.4,29.78,WSW,247,5.0,8.0,75,0.00,,,0.01,WeatherCatV1.21B27,2013-10-07 17:22:00,
2013-10-07 13:27:00,55.2,47.8,29.78,SW,218,2.0,16.0,76,0.00,,,0.01,WeatherCatV1.21B27,2013-10-07 17:27:00,
2013-10-07 13:32:00,55.3,47.5,29.78,WSW,250,6.0,13.0,75,0.00,,,0.01,WeatherCatV1.21B27,2013-10-07 17:32:00,
2013-10-07 13:37:00,55.5,47.7,29.78,West,281,7.0,13.0,75,0.00,,,0.01,WeatherCatV1.21B27,2013-10-07 17:37:00,
2013-10-07 13:42:00,55.5,47.3,29.78,WSW,257,8.0,13.0,74,0.00,,,0.01,WeatherCatV1.21B27,2013-10-07 17:42:00,
2013-10-07 13:47:00,55.4,47.2,29.78,WSW,251,5.0,15.0,74,0.00,,,0.01,WeatherCatV1.21B27,2013-10-07 17:47:00,
2013-10-07 13:52:00,55.3,47.2,29.78,West,271,10.0,13.0,74,0.00,,,0.01,WeatherCatV1.21B27,2013-10-07 17:52:00,
2013-10-07 13:57:00,55.4,47.6,29.79,West,262,13.0,18.0,75,0.00,,,0.01,WeatherCatV1.21B27,2013-10-07 17:57:00,
2013-10-07 14:02:00,55.7,47.9,29.78,West,266,10.0,17.0,75,0.00,,,0.01,WeatherCatV1.21B27,2013-10-07 18:02:00,
2013-10-07 14:07:00,55.7,47.9,29.79,West,261,6.0,17.0,75,0.00,,,0.01,WeatherCatV1.21B27,2013-10-07 18:07:00,
2013-10-07 14:12:00,55.8,48.3,29.79,West,275,8.0,11.0,76,0.00,,,0.01,WeatherCatV1.21B27,2013-10-07 18:12:00,
2013-10-07 14:17:00,55.7,47.9,29.79,WNW,289,14.0,19.0,75,0.00,,,0.01,WeatherCatV1.21B27,2013-10-07 18:17:00,
2013-10-07 14:22:00,55.3,48.2,29.79,West,265,15.0,15.0,77,0.00,,,0.01,WeatherCatV1.21B27,2013-10-07 18:22:00,
2013-10-07 14:27:00,54.8,48.1,29.80,West,262,12.0,14.0,78,0.00,,,0.01,WeatherCatV1.21B27,2013-10-07 18:27:00,
2013-10-07 14:32:00,54.6,48.2,29.80,West,261,7.0,16.0,79,0.00,,,0.01,WeatherCatV1.21B27,2013-10-07 18:32:00,
2013-10-07 14:37:00,54.6,48.2,29.80,West,281,8.0,14.0,79,0.00,,,0.01,WeatherCatV1.21B27,2013-10-07 18:37:00,
2013-10-07 14:42:00,54.6,48.5,29.80,West,273,11.0,15.0,80,0.00,,,0.01,WeatherCatV1.21B27,2013-10-07 18:42:00,
2013-10-07 14:47:00,54.4,48.7,29.81,West,270,9.0,22.0,81,0.00,,,0.01,WeatherCatV1.21B27,2013-10-07 18:47:00,
2013-10-07 14:52:00,54.0,48.6,29.81,WSW,252,7.0,14.0,82,0.00,,,0.01,WeatherCatV1.21B27,2013-10-07 18:52:00,
2013-10-07 14:57:00,53.6,49.2,29.82,West,268,7.0,12.0,85,0.00,,,0.01,WeatherCatV1.21B27,2013-10-07 18:57:00,
2013-10-07 15:02:00,53.0,49.2,29.82,SW,232,5.0,15.0,87,0.00,,,0.01,WeatherCatV1.21B27,2013-10-07 19:02:00,
2013-10-07 15:07:00,52.6,49.5,29.82,West,273,9.0,14.0,89,0.00,,,0.01,WeatherCatV1.21B27,2013-10-07 19:07:00,
2013-10-07 15:12:00,52.4,49.5,29.83,WNW,292,4.0,10.0,90,0.00,,,0.01,WeatherCatV1.21B27,2013-10-07 19:12:00,
2013-10-07 15:17:00,52.3,49.8,29.83,WNW,286,7.0,12.0,91,0.00,,,0.01,WeatherCatV1.21B27,2013-10-07 19:17:00,
2013-10-07 15:22:00,52.4,49.8,29.83,WSW,248,4.0,10.0,91,0.00,,,0.01,WeatherCatV1.21B27,2013-10-07 19:22:00,
2013-10-07 15:27:00,52.5,50.0,29.83,West,275,10.0,12.0,91,0.00,,,0.01,WeatherCatV1.21B27,2013-10-07 19:27:00,
2013-10-07 15:32:00,52.5,50.2,29.83,West,271,10.0,10.0,92,0.00,,,0.01,WeatherCatV1.21B27,2013-10-07 19:32:00,
2013-10-07 15:37:00,52.6,50.3,29.84,West,267,8.0,14.0,92,0.00,,,0.02,WeatherCatV1.21B27,2013-10-07 19:37:00,
2013-10-07 15:42:00,52.9,50.9,29.84,WSW,238,5.0,9.0,93,0.00,,,0.02,WeatherCatV1.21B27,2013-10-07 19:42:00,
2013-10-07 15:47:00,53.3,51.3,29.84,WSW,249,8.0,11.0,93,0.00,,,0.02,WeatherCatV1.21B27,2013-10-07 19:47:00,
2013-10-07 15:52:00,53.8,50.9,29.84,West,270,9.0,12.0,90,0.00,,,0.02,WeatherCatV1.21B27,2013-10-07 19:52:00,
2013-10-07 15:57:00,54.4,51.2,29.84,SW,234,13.0,14.0,89,0.00,,,0.02,WeatherCatV1.21B27,2013-10-07 19:57:00,
2013-10-07 16:02:00,55.0,51.8,29.85,WNW,301,11.0,11.0,89,0.00,,,0.02,WeatherCatV1.21B27,2013-10-07 20:02:00,
2013-10-07 16:07:00,55.1,51.0,29.85,WNW,292,7.0,13.0,86,0.00,,,0.02,WeatherCatV1.21B27,2013-10-07 20:07:00,
2013-10-07 16:12:00,55.4,51.3,29.85,NW,307,7.0,12.0,86,0.00,,,0.02,WeatherCatV1.21B27,2013-10-07 20:12:00,
2013-10-07 16:17:00,56.0,51.9,29.85,NW,313,2.0,7.0,86,0.00,,,0.02,WeatherCatV1.21B27,2013-10-07 20:17:00,
2013-10-07 16:22:00,56.7,51.6,29.86,WSW,258,6.0,9.0,83,0.00,,,0.02,WeatherCatV1.21B27,2013-10-07 20:22:00,
2013-10-07 16:27:00,56.9,51.1,29.86,WNW,293,10.0,17.0,81,0.00,,,0.02,WeatherCatV1.21B27,2013-10-07 20:27:00,
2013-10-07 16:32:00,56.8,51.4,29.86,West,268,7.0,12.0,82,0.00,,,0.02,WeatherCatV1.21B27,2013-10-07 20:32:00,
2013-10-07 16:37:00,56.8,51.7,29.86,WNW,282,5.0,11.0,83,0.00,,,0.02,WeatherCatV1.21B27,2013-10-07 20:37:00,
2013-10-07 16:42:00,57.1,51.7,29.86,SW,236,6.0,10.0,82,0.00,,,0.02,WeatherCatV1.21B27,2013-10-07 20:42:00,
2013-10-07 16:47:00,57.1,51.3,29.86,WSW,237,5.0,10.0,81,0.00,,,0.02,WeatherCatV1.21B27,2013-10-07 20:47:00,
2013-10-07 16:52:00,57.1,51.3,29.86,WNW,303,5.0,10.0,81,0.00,,,0.02,WeatherCatV1.21B27,2013-10-07 20:52:00,
2013-10-07 16:57:00,56.7,50.9,29.87,WNW,288,6.0,11.0,81,0.00,,,0.02,WeatherCatV1.21B27,2013-10-07 20:57:00,
2013-10-07 17:02:00,56.6,51.2,29.87,WNW,293,6.0,9.0,82,0.00,,,0.02,WeatherCatV1.21B27,2013-10-07 21:02:00,
2013-10-07 17:07:00,56.5,50.4,29.87,West,279,9.0,12.0,80,0.00,,,0.02,WeatherCatV1.21B27,2013-10-07 21:07:00,
2013-10-07 17:12:00,56.5,50.4,29.87,West,279,4.0,11.0,80,0.00,,,0.02,WeatherCatV1.21B27,2013-10-07 21:12:00,
2013-10-07 17:17:00,56.5,50.4,29.88,WNW,297,2.0,3.0,80,0.00,,,0.02,WeatherCatV1.21B27,2013-10-07 21:17:00,
2013-10-07 17:22:00,56.6,50.5,29.88,WNW,296,5.0,7.0,80,0.00,,,0.02,WeatherCatV1.21B27,2013-10-07 21:22:00,
2013-10-07 17:27:00,57.2,50.7,29.88,NW,313,3.0,7.0,79,0.00,,,0.02,WeatherCatV1.21B27,2013-10-07 21:27:00,
2013-10-07 17:32:00,57.8,51.0,29.88,West,280,4.0,5.0,78,0.00,,,0.02,WeatherCatV1.21B27,2013-10-07 21:32:00,
2013-10-07 17:37:00,57.7,50.5,29.88,West,274,4.0,8.0,77,0.00,,,0.02,WeatherCatV1.21B27,2013-10-07 21:37:00,
2013-10-07 17:42:00,57.3,49.8,29.88,NW,309,3.0,10.0,76,0.00,,,0.02,WeatherCatV1.21B27,2013-10-07 21:42:00,
2013-10-07 17:47:00,57.1,49.6,29.88,WNW,287,3.0,6.0,76,0.00,,,0.02,WeatherCatV1.21B27,2013-10-07 21:47:00,
2013-10-07 17:52:00,57.3,49.4,29.89,NW,320,6.0,8.0,75,0.00,,,0.02,WeatherCatV1.21B27,2013-10-07 21:52:00,
2013-10-07 17:57:00,57.6,49.7,29.89,NW,312,5.0,9.0,75,0.00,,,0.02,WeatherCatV1.21B27,2013-10-07 21:57:00,
2013-10-07 18:02:00,57.9,50.0,29.89,NNW,327,1.0,4.0,75,0.00,,,0.02,WeatherCatV1.21B27,2013-10-07 22:02:00,
2013-10-07 18:07:00,58.1,49.8,29.90,WNW,302,3.0,6.0,74,0.00,,,0.02,WeatherCatV1.21B27,2013-10-07 22:07:00,
2013-10-07 18:12:00,58.1,49.5,29.90,WNW,283,3.0,7.0,73,0.00,,,0.02,WeatherCatV1.21B27,2013-10-07 22:12:00,
2013-10-07 18:17:00,57.9,48.5,29.90,NW,316,6.0,8.0,71,0.00,,,0.02,WeatherCatV1.21B27,2013-10-07 22:17:00,
2013-10-07 18:22:00,57.7,48.4,29.91,WNW,301,4.0,6.0,71,0.00,,,0.02,WeatherCatV1.21B27,2013-10-07 22:22:00,
2013-10-07 18:27:00,57.4,48.1,29.91,WNW,286,3.0,6.0,71,0.00,,,0.02,WeatherCatV1.21B27,2013-10-07 22:27:00,
2013-10-07 18:32:00,57.2,47.5,29.91,WNW,286,4.0,6.0,70,0.00,,,0.02,WeatherCatV1.21B27,2013-10-07 22:32:00,
2013-10-07 18:37:00,57.0,47.3,29.92,NW,312,5.0,6.0,70,0.00,,,0.02,WeatherCatV1.21B27,2013-10-07 22:37:00,
2013-10-07 18:42:00,56.6,46.9,29.92,WSW,258,5.0,8.0,70,0.00,,,0.02,WeatherCatV1.21B27,2013-10-07 22:42:00,
2013-10-07 18:47:00,56.2,46.5,29.92,WNW,298,3.0,7.0,70,0.00,,,0.02,WeatherCatV1.21B27,2013-10-07 22:47:00,
2013-10-07 18:52:00,55.9,46.6,29.92,WNW,298,2.0,4.0,71,0.00,,,0.02,WeatherCatV1.21B27,2013-10-07 22:52:00,
2013-10-07 18:57:00,55.6,46.3,29.93,WNW,291,1.0,4.0,71,0.00,,,0.02,WeatherCatV1.21B27,2013-10-07 22:57:00,
2013-10-07 19:02:00,55.3,46.4,29.93,West,277,0.0,4.0,72,0.00,,,0.02,WeatherCatV1.21B27,2013-10-07 23:02:00,
2013-10-07 19:07:00,55.0,46.5,29.93,WNW,295,2.0,2.0,73,0.00,,,0.02,WeatherCatV1.21B27,2013-10-07 23:07:00,
2013-10-07 19:12:00,54.6,46.5,29.94,West,271,2.0,3.0,74,0.00,,,0.02,WeatherCatV1.21B27,2013-10-07 23:12:00,
2013-10-07 19:17:00,54.3,46.9,29.94,West,262,1.0,2.0,76,0.00,,,0.02,WeatherCatV1.21B27,2013-10-07 23:17:00,
2013-10-07 19:22:00,54.0,47.0,29.95,West,265,1.0,3.0,77,0.00,,,0.02,WeatherCatV1.21B27,2013-10-07 23:22:00,
2013-10-07 19:27:00,53.7,47.0,29.95,WSW,252,4.0,4.0,78,0.00,,,0.02,WeatherCatV1.21B27,2013-10-07 23:27:00,
2013-10-07 19:32:00,53.4,46.7,29.95,West,259,2.0,5.0,78,0.00,,,0.02,WeatherCatV1.21B27,2013-10-07 23:32:00,
2013-10-07 19:37:00,53.2,46.9,29.96,WSW,247,3.0,4.0,79,0.00,,,0.02,WeatherCatV1.21B27,2013-10-07 23:37:00,
2013-10-07 19:42:00,53.1,46.4,29.96,West,275,1.0,3.0,78,0.00,,,0.02,WeatherCatV1.21B27,2013-10-07 23:42:00,
2013-10-07 19:47:00,53.0,46.3,29.96,WNW,289,3.0,3.0,78,0.00,,,0.02,WeatherCatV1.21B27,2013-10-07 23:47:00,
2013-10-07 19:52:00,52.9,46.2,29.96,WSW,238,3.0,3.0,78,0.00,,,0.02,WeatherCatV1.21B27,2013-10-07 23:52:00,
2013-10-07 19:57:00,52.8,46.1,29.97,WNW,289,3.0,3.0,78,0.00,,,0.02,WeatherCatV1.21B27,2013-10-07 23:57:00,
2013-10-07 20:02:00,52.6,45.9,29.97,West,272,2.0,3.0,78,0.00,,,0.02,WeatherCatV1.21B27,2013-10-08 00:02:00,
2013-10-07 20:07:00,52.4,45.7,29.97,West,263,2.0,4.0,78,0.00,,,0.02,WeatherCatV1.21B27,2013-10-08 00:07:00,
2013-10-07 20:12:00,52.2,45.9,29.97,West,266,2.0,4.0,79,0.00,,,0.02,WeatherCatV1.21B27,2013-10-08 00:12:00,
2013-10-07 20:17:00,52.1,45.8,29.98,West,270,2.0,4.0,79,0.00,,,0.02,WeatherCatV1.21B27,2013-10-08 00:17:00,
2013-10-07 20:22:00,51.9,45.6,29.98,West,269,1.0,3.0,79,0.00,,,0.02,WeatherCatV1.21B27,2013-10-08 00:22:00,
2013-10-07 20:27:00,51.8,45.8,29.98,West,270,3.0,4.0,80,0.00,,,0.02,WeatherCatV1.21B27,2013-10-08 00:27:00,
2013-10-07 20:32:00,51.8,45.8,29.99,West,261,1.0,3.0,80,0.00,,,0.02,WeatherCatV1.21B27,2013-10-08 00:32:00,
2013-10-07 20:37:00,51.7,45.7,29.99,West,264,1.0,3.0,80,0.00,,,0.02,WeatherCatV1.21B27,2013-10-08 00:37:00,
2013-10-07 20:42:00,51.7,45.7,29.99,West,281,0.0,2.0,80,0.00,,,0.02,WeatherCatV1.21B27,2013-10-08 00:42:00,
2013-10-07 20:47:00,51.5,45.5,30.00,West,275,1.0,3.0,80,0.00,,,0.02,WeatherCatV1.21B27,2013-10-08 00:47:00,
2013-10-07 20:52:00,51.3,45.7,30.00,West,268,0.0,4.0,81,0.00,,,0.02,WeatherCatV1.21B27,2013-10-08 00:52:00,
2013-10-07 20:57:00,51.2,45.6,30.00,West,267,0.0,0.0,81,0.00,,,0.02,WeatherCatV1.21B27,2013-10-08 00:57:00,
2013-10-07 21:02:00,50.9,45.6,30.01,West,267,0.0,0.0,82,0.00,,,0.02,WeatherCatV1.21B27,2013-10-08 01:02:00,
2013-10-07 21:07:00,50.5,45.5,30.01,WNW,284,0.0,1.0,83,0.00,,,0.02,WeatherCatV1.21B27,2013-10-08 01:07:00,
2013-10-07 21:12:00,50.1,45.5,30.01,West,280,0.0,1.0,84,0.00,,,0.02,WeatherCatV1.21B27,2013-10-08 01:12:00,
2013-10-07 21:17:00,49.8,45.2,30.02,West,280,0.0,1.0,84,0.00,,,0.02,WeatherCatV1.21B27,2013-10-08 01:17:00,
2013-10-07 21:22:00,49.6,45.3,30.02,West,280,0.0,1.0,85,0.00,,,0.02,WeatherCatV1.21B27,2013-10-08 01:22:00,
2013-10-07 21:27:00,49.4,45.1,30.02,West,280,0.0,0.0,85,0.00,,,0.02,WeatherCatV1.21B27,2013-10-08 01:27:00,
2013-10-07 21:32:00,49.1,44.8,30.02,West,280,0.0,0.0,85,0.00,,,0.02,WeatherCatV1.21B27,2013-10-08 01:32:00,
2013-10-07 21:37:00,48.8,44.8,30.03,West,280,0.0,1.0,86,0.00,,,0.02,WeatherCatV1.21B27,2013-10-08 01:37:00,
2013-10-07 21:42:00,48.8,44.8,30.03,West,280,0.0,1.0,86,0.00,,,0.02,WeatherCatV1.21B27,2013-10-08 01:42:00,
2013-10-07 21:47:00,48.7,44.7,30.03,West,280,0.0,1.0,86,0.00,,,0.02,WeatherCatV1.21B27,2013-10-08 01:47:00,
2013-10-07 21:52:00,48.7,44.7,30.03,West,280,0.0,1.0,86,0.00,,,0.02,WeatherCatV1.21B27,2013-10-08 01:52:00,
2013-10-07 21:57:00,48.8,45.1,30.04,WSW,240,1.0,1.0,87,0.00,,,0.02,WeatherCatV1.21B27,2013-10-08 01:57:00,
2013-10-07 22:02:00,48.8,44.8,30.04,WSW,242,0.0,0.0,86,0.00,,,0.02,WeatherCatV1.21B27,2013-10-08 02:02:00,
2013-10-07 22:07:00,48.7,44.7,30.05,WSW,254,0.0,3.0,86,0.00,,,0.02,WeatherCatV1.21B27,2013-10-08 02:07:00,
2013-10-07 22:12:00,48.6,44.9,30.05,SW,225,1.0,2.0,87,0.00,,,0.02,WeatherCatV1.21B27,2013-10-08 02:12:00,
2013-10-07 22:17:00,48.6,44.9,30.05,SW,225,0.0,1.0,87,0.00,,,0.02,WeatherCatV1.21B27,2013-10-08 02:17:00,
2013-10-07 22:22:00,48.7,45.0,30.05,West,272,1.0,3.0,87,0.00,,,0.02,WeatherCatV1.21B27,2013-10-08 02:22:00,
2013-10-07 22:27:00,48.7,45.0,30.05,West,269,1.0,1.0,87,0.00,,,0.02,WeatherCatV1.21B27,2013-10-08 02:27:00,
2013-10-07 22:32:00,48.8,44.8,30.05,West,271,0.0,1.0,86,0.00,,,0.02,WeatherCatV1.21B27,2013-10-08 02:32:00,
2013-10-07 22:37:00,48.8,44.8,30.05,West,271,0.0,1.0,86,0.00,,,0.02,WeatherCatV1.21B27,2013-10-08 02:37:00,
2013-10-07 22:42:00,48.8,45.1,30.06,West,271,0.0,1.0,87,0.00,,,0.02,WeatherCatV1.21B27,2013-10-08 02:42:00,
2013-10-07 22:47:00,48.7,45.0,30.05,West,271,0.0,2.0,87,0.00,,,0.02,WeatherCatV1.21B27,2013-10-08 02:47:00,
2013-10-07 22:52:00,48.6,44.9,30.06,West,271,0.0,0.0,87,0.00,,,0.02,WeatherCatV1.21B27,2013-10-08 02:52:00,
2013-10-07 22:57:00,48.5,44.8,30.06,West,271,0.0,0.0,87,0.00,,,0.02,WeatherCatV1.21B27,2013-10-08 02:57:00,
2013-10-07 23:02:00,48.4,45.0,30.06,West,271,0.0,1.0,88,0.00,,,0.02,WeatherCatV1.21B27,2013-10-08 03:02:00,
2013-10-07 23:07:00,48.3,44.9,30.06,West,271,0.0,1.0,88,0.00,,,0.02,WeatherCatV1.21B27,2013-10-08 03:07:00,
2013-10-07 23:12:00,48.2,44.8,30.06,West,271,0.0,0.0,88,0.00,,,0.02,WeatherCatV1.21B27,2013-10-08 03:12:00,
2013-10-07 23:17:00,48.0,44.6,30.06,West,271,0.0,1.0,88,0.00,,,0.02,WeatherCatV1.21B27,2013-10-08 03:17:00,
2013-10-07 23:22:00,47.9,44.8,30.06,West,271,0.0,1.0,89,0.00,,,0.02,WeatherCatV1.21B27,2013-10-08 03:22:00,
2013-10-07 23:27:00,47.8,44.7,30.06,West,271,0.0,0.0,89,0.00,,,0.02,WeatherCatV1.21B27,2013-10-08 03:27:00,
2013-10-07 23:32:00,47.4,44.0,30.07,West,271,0.0,0.0,88,0.00,,,0.02,WeatherCatV1.21B27,2013-10-08 03:32:00,
2013-10-07 23:37:00,47.0,43.6,30.07,West,271,0.0,0.0,88,0.00,,,0.02,WeatherCatV1.21B27,2013-10-08 03:37:00,
2013-10-07 23:42:00,46.4,43.0,30.07,West,271,0.0,0.0,88,0.00,,,0.02,WeatherCatV1.21B27,2013-10-08 03:42:00,
2013-10-07 23:47:00,45.8,42.5,30.08,West,271,0.0,0.0,88,0.00,,,0.02,WeatherCatV1.21B27,2013-10-08 03:47:00,
2013-10-07 23:52:00,45.2,42.2,30.08,West,271,0.0,0.0,89,0.00,,,0.02,WeatherCatV1.21B27,2013-10-08 03:52:00,
2013-10-07 23:57:00,44.7,42.0,30.08,West,271,0.0,0.0,90,0.00,,,0.02,WeatherCatV1.21B27,2013-10-08 03:57:00,